TimeEST,TemperatureF,Dew PointF,Humidity,Sea Level PressureIn,VisibilityMPH,Wind Direction,Wind SpeedMPH,Gust SpeedMPH,PrecipitationIn,Events,Conditions,WindDirDegrees,DateUTC
12:54 AM,30.9,24.1,76,30.43,10.0,NW,4.6,-,N/A,,Mostly Cloudy,310,2013-03-08 05:54:00
1:54 AM,28.9,23.0,78,30.44,10.0,NW,4.6,-,N/A,,Scattered Clouds,320,2013-03-08 06:54:00
2:54 AM,27.0,23.0,85,30.44,10.0,North,4.6,-,N/A,,Partly Cloudy,350,2013-03-08 07:54:00
3:54 AM,23.0,21.0,92,30.45,10.0,NNW,3.5,-,N/A,,Partly Cloudy,340,2013-03-08 08:54:00
4:54 AM,21.9,19.9,92,30.47,10.0,North,4.6,-,N/A,,Clear,350,2013-03-08 09:54:00
5:54 AM,21.0,19.9,96,30.48,10.0,Calm,Calm,-,N/A,,Clear,0,2013-03-08 10:54:00
6:54 AM,17.1,15.1,92,30.49,9.0,Calm,Calm,-,N/A,Fog,Shallow Fog,0,2013-03-08 11:54:00
7:54 AM,18.0,18.0,100,30.50,8.0,Calm,Calm,-,N/A,Fog,Shallow Fog,0,2013-03-08 12:54:00
8:54 AM,23.0,21.0,92,30.52,9.0,Calm,Calm,-,N/A,,Partly Cloudy,0,2013-03-08 13:54:00
9:54 AM,28.9,21.9,75,30.53,10.0,Calm,Calm,-,N/A,,Partly Cloudy,0,2013-03-08 14:54:00
10:54 AM,33.1,19.9,59,30.52,10.0,ESE,5.8,-,N/A,,Partly Cloudy,120,2013-03-08 15:54:00
11:54 AM,34.0,19.9,56,30.52,10.0,Calm,Calm,-,N/A,,Scattered Clouds,0,2013-03-08 16:54:00
12:54 PM,35.1,21.0,57,30.50,10.0,SSE,4.6,-,N/A,,Mostly Cloudy,160,2013-03-08 17:54:00
1:54 PM,35.1,19.0,52,30.49,10.0,SE,3.5,-,N/A,,Partly Cloudy,140,2013-03-08 18:54:00
2:54 PM,35.1,21.0,57,30.48,10.0,South,5.8,-,N/A,,Partly Cloudy,180,2013-03-08 19:54:00
3:54 PM,35.1,19.9,54,30.47,10.0,SSE,5.8,-,N/A,,Partly Cloudy,160,2013-03-08 20:54:00
4:54 PM,35.1,21.0,57,30.46,10.0,SSE,5.8,-,N/A,,Partly Cloudy,160,2013-03-08 21:54:00
5:54 PM,35.1,21.0,57,30.45,10.0,ESE,3.5,-,N/A,,Partly Cloudy,120,2013-03-08 22:54:00
6:54 PM,33.1,21.9,64,30.45,10.0,ESE,4.6,-,N/A,,Partly Cloudy,110,2013-03-08 23:54:00
7:54 PM,30.9,21.9,69,30.45,10.0,Calm,Calm,-,N/A,,Clear,0,2013-03-09 00:54:00
8:54 PM,28.0,21.0,75,30.45,10.0,Calm,Calm,-,N/A,,Scattered Clouds,0,2013-03-09 01:54:00
9:54 PM,25.0,21.0,85,30.46,10.0,Calm,Calm,-,N/A,,Scattered Clouds,0,2013-03-09 02:54:00
10:54 PM,23.0,19.0,85,30.44,10.0,Calm,Calm,-,N/A,,Mostly Cloudy,0,2013-03-09 03:54:00
11:54 PM,24.1,19.9,84,30.43,9.0,Calm,Calm,-,N/A,,Mostly Cloudy,0,2013-03-09 04:54:00